Location: Kellogg
(38.0159°N, 90.0546°W)
Time: 01:09:44
(UTC+00:00)

Vanguard 2 - Pass Details

Date: 28 September 2024
Orbit: 552 x 2910 km, 32.9° (Epoch: 15 October)

Event Time Altitude Azimuth Distance (km) Brightness Sun altitude
Rises 05:16:59 0° 240° (WSW) 3,556 - -53.4°
Reaches altitude 10° 05:20:10 10° 231° (SW) 2,322 - -53.5°
Maximum altitude 05:24:40 31° 169° (S) 1,093 - -53.7°
Drops below altitude 10° 05:28:17 10° 105° (ESE) 1,848 - -53.8°
Sets 05:30:32 0° 94° (E) 2,712 - -53.9°
